• en France
  • Liste des pays
  • À 7 jours
  • Température de l'eau
  • Carte satellitaire
  • Carte météo
  • Widgets météo
  • user-avatar
    Se connecter

    Météo par heure à Puntarenas

    Ce jour, 21 Février, Mercredi

    Heure Température Précipitation Vent Pression Humidité
    00:00 +26°C° 0 mm 3 m/s 759 mmHg 75%
    01:00 +26°C° 0 mm 3 m/s 759 mmHg 75%
    02:00 +26°C° 0 mm 2 m/s 759 mmHg 75%
    03:00 +26°C° 0 mm 2 m/s 759 mmHg 75%
    04:00 +26°C° 0 mm 2 m/s 759 mmHg 76%
    05:00 +25°C° 0 mm 2 m/s 759 mmHg 76%
    06:00 +25°C° 0 mm 2 m/s 759 mmHg 76%
    07:00 +27°C° 0 mm 2 m/s 759 mmHg 68%
    08:00 +30°C° 0 mm 2 m/s 760 mmHg 59%
    09:00 +33°C° 0 mm 3 m/s 760 mmHg 51%
    10:00 +35°C° 0 mm 3 m/s 760 mmHg 47%
    11:00 +36°C° 0 mm 3 m/s 760 mmHg 44%
    12:00 +38°C° 0 mm 3 m/s 759 mmHg 41%
    13:00 +36°C° 0 mm 3 m/s 759 mmHg 45%
    14:00 +35°C° 0 mm 3 m/s 758 mmHg 50%
    15:00 +34°C° 0 mm 4 m/s 758 mmHg 55%
    16:00 +31°C° 0,1 mm 3 m/s 758 mmHg 63%
    17:00 +29°C° 0,1 mm 3 m/s 758 mmHg 71%
    18:00 +28°C° 0,1 mm 2 m/s 758 mmHg 78%
    19:00 +27°C° 0,1 mm 2 m/s 759 mmHg 79%
    20:00 +27°C° 0,1 mm 2 m/s 760 mmHg 80%
    21:00 +26°C° 0,1 mm 3 m/s 760 mmHg 81%
    22:00 +26°C° 0 mm 3 m/s 760 mmHg 81%
    23:00 +26°C° 0 mm 2 m/s 760 mmHg 80%

    Demain, 22 Février, Jeudi

    Heure Température Précipitation Vent Pression Humidité
    00:00 +26°C° 0 mm 2 m/s 760 mmHg 80%
    01:00 +26°C° 0 mm 2 m/s 760 mmHg 80%
    02:00 +26°C° 0 mm 2 m/s 759 mmHg 79%
    03:00 +26°C° 0 mm 2 m/s 759 mmHg 79%
    04:00 +26°C° 0 mm 2 m/s 759 mmHg 79%
    05:00 +26°C° 0 mm 2 m/s 759 mmHg 78%
    06:00 +26°C° 0 mm 2 m/s 760 mmHg 78%
    07:00 +28°C° 0 mm 2 m/s 760 mmHg 70%
    08:00 +30°C° 0 mm 3 m/s 761 mmHg 62%
    09:00 +33°C° 0 mm 3 m/s 761 mmHg 54%
    10:00 +34°C° 0 mm 3 m/s 761 mmHg 50%
    11:00 +36°C° 0 mm 3 m/s 760 mmHg 46%
    12:00 +38°C° 0 mm 3 m/s 760 mmHg 43%
    13:00 +36°C° 0 mm 3 m/s 759 mmHg 47%
    14:00 +35°C° 0 mm 3 m/s 758 mmHg 51%
    15:00 +33°C° 0 mm 3 m/s 758 mmHg 55%
    16:00 +31°C° 0,1 mm 3 m/s 758 mmHg 61%
    17:00 +29°C° 0,1 mm 2 m/s 758 mmHg 66%
    18:00 +28°C° 0,1 mm 2 m/s 758 mmHg 72%
    19:00 +27°C° 0 mm 2 m/s 759 mmHg 73%
    20:00 +27°C° 0 mm 2 m/s 760 mmHg 74%
    21:00 +26°C° 0 mm 2 m/s 760 mmHg 75%
    22:00 +26°C° 0 mm 2 m/s 760 mmHg 75%
    23:00 +26°C° 0 mm 2 m/s 760 mmHg 75%

    Après-demain, 23 Février, Vendredi

    Heure Température Précipitation Vent Pression Humidité
    00:00 +26°C° 0 mm 3 m/s 760 mmHg 74%
    01:00 +26°C° 0 mm 3 m/s 760 mmHg 75%
    02:00 +26°C° 0 mm 3 m/s 759 mmHg 75%
    03:00 +26°C° 0 mm 2 m/s 759 mmHg 75%
    04:00 +25°C° 0 mm 2 m/s 759 mmHg 75%
    05:00 +25°C° 0 mm 2 m/s 759 mmHg 75%
    06:00 +25°C° 0 mm 2 m/s 759 mmHg 75%
    07:00 +27°C° 0 mm 3 m/s 760 mmHg 68%
    08:00 +30°C° 0 mm 3 m/s 760 mmHg 60%
    09:00 +33°C° 0 mm 3 m/s 761 mmHg 53%
    10:00 +34°C° 0 mm 3 m/s 760 mmHg 49%
    11:00 +36°C° 0 mm 3 m/s 760 mmHg 44%
    12:00 +38°C° 0 mm 3 m/s 759 mmHg 40%
    13:00 +37°C° 0 mm 3 m/s 758 mmHg 42%
    14:00 +36°C° 0 mm 3 m/s 758 mmHg 44%
    15:00 +35°C° 0 mm 4 m/s 757 mmHg 46%
    16:00 +33°C° 0,1 mm 3 m/s 757 mmHg 54%
    17:00 +30°C° 0,1 mm 2 m/s 758 mmHg 62%
    18:00 +28°C° 0,1 mm 2 m/s 758 mmHg 70%
    19:00 +27°C° 0 mm 2 m/s 758 mmHg 73%
    20:00 +27°C° 0 mm 2 m/s 759 mmHg 76%
    21:00 +26°C° 0 mm 2 m/s 759 mmHg 79%
    22:00 +26°C° 0 mm 2 m/s 759 mmHg 78%
    23:00 +25°C° 0 mm 2 m/s 759 mmHg 77%

    24 Février, Samedi

    Heure Température Précipitation Vent Pression Humidité
    00:00 +25°C° 0 mm 2 m/s 759 mmHg 76%
    01:00 +25°C° 0 mm 2 m/s 759 mmHg 76%
    02:00 +24°C° 0 mm 2 m/s 758 mmHg 76%
    03:00 +24°C° 0 mm 2 m/s 758 mmHg 76%
    04:00 +24°C° 0 mm 2 m/s 758 mmHg 76%
    05:00 +24°C° 0 mm 2 m/s 759 mmHg 76%
    06:00 +24°C° 0 mm 2 m/s 759 mmHg 76%
    07:00 +27°C° 0 mm 2 m/s 759 mmHg 67%
    08:00 +30°C° 0 mm 2 m/s 760 mmHg 57%
    09:00 +32°C° 0 mm 1 m/s 760 mmHg 48%
    10:00 +34°C° 0 mm 2 m/s 759 mmHg 45%
    11:00 +35°C° 0 mm 2 m/s 759 mmHg 43%
    12:00 +36°C° 0 mm 3 m/s 758 mmHg 41%
    13:00 +35°C° 0 mm 3 m/s 758 mmHg 45%
    14:00 +34°C° 0 mm 3 m/s 757 mmHg 49%
    15:00 +33°C° 0 mm 3 m/s 757 mmHg 53%
    16:00 +31°C° 0 mm 2 m/s 757 mmHg 59%
    17:00 +29°C° 0 mm 2 m/s 757 mmHg 66%
    18:00 +28°C° 0 mm 2 m/s 758 mmHg 73%
    19:00 +27°C° 0 mm 2 m/s 758 mmHg 76%
    20:00 +27°C° 0 mm 1 m/s 759 mmHg 79%
    21:00 +26°C° 0 mm 1 m/s 760 mmHg 82%
    22:00 +26°C° 0 mm 1 m/s 759 mmHg 83%
    23:00 +25°C° 0 mm 1 m/s 759 mmHg 83%

    25 Février, Dimanche

    Heure Température Précipitation Vent Pression Humidité
    00:00 +25°C° 0 mm 1 m/s 759 mmHg 83%
    01:00 +25°C° 0 mm 1 m/s 759 mmHg 82%
    02:00 +24°C° 0 mm 2 m/s 759 mmHg 81%
    03:00 +24°C° 0 mm 2 m/s 758 mmHg 80%
    04:00 +24°C° 0 mm 2 m/s 759 mmHg 79%
    05:00 +24°C° 0 mm 2 m/s 759 mmHg 78%
    06:00 +24°C° 0 mm 2 m/s 760 mmHg 77%
    07:00 +27°C° 0 mm 2 m/s 760 mmHg 68%
    08:00 +29°C° 0 mm 1 m/s 760 mmHg 59%
    09:00 +32°C° 0 mm 1 m/s 760 mmHg 50%
    10:00 +34°C° 0 mm 2 m/s 760 mmHg 48%
    11:00 +35°C° 0 mm 2 m/s 759 mmHg 46%
    12:00 +36°C° 0 mm 2 m/s 759 mmHg 43%
    13:00 +35°C° 0,1 mm 2 m/s 758 mmHg 47%
    14:00 +34°C° 0,1 mm 3 m/s 758 mmHg 51%
    15:00 +33°C° 0,1 mm 3 m/s 757 mmHg 54%
    16:00 +31°C° 0,1 mm 2 m/s 757 mmHg 62%
    17:00 +29°C° 0,1 mm 2 m/s 758 mmHg 70%
    18:00 +27°C° 0,1 mm 2 m/s 758 mmHg 78%
    19:00 +27°C° 0 mm 2 m/s 759 mmHg 80%
    20:00 +27°C° 0 mm 2 m/s 759 mmHg 82%
    21:00 +26°C° 0 mm 2 m/s 760 mmHg 84%
    22:00 +26°C° 0 mm 2 m/s 759 mmHg 84%
    23:00 +26°C° 0 mm 2 m/s 759 mmHg 83%

    26 Février, Lundi

    Heure Température Précipitation Vent Pression Humidité
    00:00 +25°C° 0 mm 1 m/s 759 mmHg 83%
    01:00 +25°C° 0 mm 1 m/s 759 mmHg 82%
    02:00 +25°C° 0 mm 2 m/s 759 mmHg 82%
    03:00 +24°C° 0 mm 2 m/s 759 mmHg 81%
    04:00 +24°C° 0 mm 2 m/s 759 mmHg 81%
    05:00 +24°C° 0 mm 2 m/s 759 mmHg 80%
    06:00 +24°C° 0 mm 2 m/s 760 mmHg 79%
    07:00 +27°C° 0 mm 2 m/s 760 mmHg 71%
    08:00 +29°C° 0 mm 1 m/s 760 mmHg 62%
    09:00 +32°C° 0 mm 1 m/s 761 mmHg 54%
    10:00 +34°C° 0 mm 2 m/s 760 mmHg 51%
    11:00 +35°C° 0 mm 2 m/s 760 mmHg 49%
    12:00 +36°C° 0 mm 2 m/s 759 mmHg 46%
    13:00 +35°C° 0 mm 2 m/s 759 mmHg 49%
    14:00 +34°C° 0 mm 2 m/s 758 mmHg 53%
    15:00 +32°C° 0 mm 2 m/s 757 mmHg 57%
    16:00 +31°C° 0 mm 2 m/s 758 mmHg 63%
    17:00 +29°C° 0 mm 2 m/s 758 mmHg 69%
    18:00 +28°C° 0 mm 1 m/s 758 mmHg 76%
    19:00 +27°C° 0 mm 1 m/s 759 mmHg 79%
    20:00 +27°C° 0 mm 1 m/s 759 mmHg 81%
    21:00 +26°C° 0 mm 1 m/s 759 mmHg 84%
    22:00 +26°C° 0 mm 1 m/s 759 mmHg 84%
    23:00 +26°C° 0 mm 2 m/s 759 mmHg 84%
    Voir plus